Погода в Сиалеевской Пятине

Россия / Республика Мордовия     53°48′47″N   44°31′00″E
темп.,
°C
ветер,
м/с
пор.,
м/с
влажн.,
%
обл.,
%
осадки,
мм/ч
давл.,
гПа
погр.,
м
25 мая, ср
ср2500:00+2сз369311 0.1 1010297
03:000сз36965 0.1 1011128
06:00+2сз46865 0.0 1012250
09:00+6сз456583 0.0 10131370
12:00+7сз465697 0.1 10141389
15:00+9зсз455597 0.2 10141539
18:00+8зсз357060 0.4 1014766
21:00+4з33825 0.5 101628
26 мая, чт
чт2600:00+2зюз34895 0.0 101648
03:00+2юз348957 0.0 101655
06:00+5юз48825 0.0 1015239
09:00+9юз6872100 0.0 10141129
12:00+11зюз587597 0.3 10141113
15:00+14юз6966100 0.4 10121314
18:00+14юз5971100 0.1 1010273
21:00+11ю61382100 0.1 1009344
27 мая, пт
пт2700:00+10ю71496100 2.1 1006544
03:00+11ююз91496100 5.6 1002962
06:00+10юз91594100 1.1 10001010
09:00+9юз91691100 2.5 10011367
12:00+11зюз10178557 0.8 10021366
15:00+13з9147880 1.4 10031362
18:00+13з6118447 0.4 10051067
21:00+9зюз38965 0.5 1008170
28 мая, сб
сб2800:00+8юз4996100 0.0 1009195
03:00+8юз41096100 0.0 1009212
06:00+10ююз61489100 0.0 1009456
09:00+15ююз10167653 0.0 10071093
12:00+13юз81487100 0.4 1008964
15:00+12юз6129498 1.6 1010748
18:00+14юз598580 0.0 1011756
21:00+10ююз4994100 0.1 1013190
29 мая, вс
вс2900:00+9ююз389593 0.0 1014152
03:00+9ююз499690 0.0 1015203
06:00+11ююз41092100 0.1 1015355
09:00+10юз4896100 3.9 1017499
12:00+11юз5994100 4.1 1017508
15:00+11ююз4895100 4.6 1017499
18:00+11ююз5993100 0.3 1018495
21:00+9юз499677 0.3 1019248